Home > Weather > Apeldoorn > Past weeks

Flag for Netherlands Past Weather in Apeldoorn, Netherlands — Yesterday and Last 2 Weeks

Now
55 °F

Fog.


Feels Like: 54 °F
Forecast: 58 / 67 °F
Wind: 6 mph from North

Location: Deelen

Current Time: May 28, 2016 at 6:06:59 AM

Latest Report: May 28, 2016 at 5:25 AM


Visibility: 2 mi

Pressure: 29.98 "Hg

Humidity: 94%

Dew Point: 54 °F

Location of ApeldoornLocation

Past Weather in Apeldoorn — Graph

°F

Apeldoorn Temperature Yesterday

Maximum temperature yesterday: 70 °F (at 3:25 PM)
Minimum temperature yesterday: 52 °F (at 4:25 AM)
Average temperature yesterday: 60 °F

High & Low Weather Summary for the Past Weeks

 TemperatureHumidityPressure
High75 °F (May 13, 1:55 PM)100% (May 16, 3:55 AM)30.12 "Hg (May 16, 3:55 AM)
Low34 °F (May 16, 3:55 AM)25% (May 13, 3:25 PM)29.59 "Hg (May 13, 4:25 AM)
Average55 °F77%29.93 "Hg
* Reported May 13 4:25 AM — May 28 4:55 AM, Apeldoorn, Weather by CustomWeather, © 2016

Note: Actual official high and low records may vary slightly from our data, if they occured in-between our weather recording intervals... More about our weather records

Advertising

Apeldoorn Weather History for the Previous 24 Hours

Scroll right to see more
 ConditionsComfort  
Time TempWeatherWind HumidityBarometerVisibility
4:55 AM
Sat, May 28
55 °FFog.3 mph94%29.98 "Hg2 mi
4:25 AM57 °FFog.5 mph94%29.98 "Hg2 mi
3:55 AM57 °FFog.3 mph94%29.98 "Hg2 mi
3:25 AM57 °FFog.2 mph94%29.98 "Hg2 mi
2:55 AM57 °FFog.3 mph88%29.98 "Hg2 mi
2:25 AM55 °FFog.6 mph94%29.98 "Hg3 mi
1:55 AM57 °FFog.5 mph88%29.98 "Hg3 mi
1:25 AM57 °FFog.6 mph88%29.98 "Hg4 mi
12:55 AM57 °FFog.2 mph88%29.98 "Hg4 mi
12:25 AM59 °FFog.5 mph82%29.98 "Hg4 mi
11:55 PM
Fri, May 27
57 °FFog.3 mph88%30.01 "Hg4 mi
11:25 PM57 °FFog.5 mph88%29.98 "Hg5 mi
10:55 PM57 °FFog.5 mph88%30.01 "Hg6 mi
10:25 PM57 °FOvercast.3 mph88%30.01 "HgN/A
9:55 PM59 °FOvercast.3 mph82%30.01 "HgN/A
9:25 PM63 °FScattered clouds.3 mph73%30.01 "HgN/A
8:55 PM64 °FMild.5 mph68%29.98 "HgN/A
8:25 PM64 °FHaze.7 mph68%29.98 "Hg6 mi
7:55 PM66 °FHaze.9 mph68%29.98 "Hg6 mi
7:25 PM66 °FMild.8 mph68%29.98 "HgN/A
6:55 PM66 °FBroken clouds.8 mph64%29.98 "HgN/A
6:25 PM66 °FPassing clouds.10 mph64%29.98 "HgN/A
5:55 PM68 °FMild.9 mph60%29.98 "HgN/A
5:25 PM68 °FPassing clouds.7 mph60%30.01 "HgN/A
4:55 PM68 °FPassing clouds.9 mph64%30.01 "HgN/A
4:25 PM70 °FMild.12 mph60%30.01 "HgN/A
3:55 PM68 °FPassing clouds.9 mph60%30.01 "HgN/A
3:25 PM70 °FPassing clouds.10 mph60%30.01 "HgN/A
2:55 PM66 °FPartly sunny.10 mph68%30.01 "HgN/A
2:25 PM64 °FOvercast.8 mph68%30.01 "Hg6 mi
1:55 PM64 °FCloudy.9 mph68%30.01 "HgN/A
1:25 PM66 °FPartly sunny.9 mph68%30.01 "Hg5 mi
12:55 PM64 °FPartly sunny.8 mph68%30.01 "Hg6 mi
12:25 PM64 °FOvercast.9 mph73%30.01 "Hg6 mi
11:55 AM64 °FBroken clouds.10 mph68%30.01 "HgN/A
11:25 AM64 °FPartly sunny.8 mph73%30.01 "HgN/A
10:55 AM63 °FBroken clouds.10 mph73%30.01 "Hg6 mi
10:25 AM63 °FOvercast.9 mph73%30.01 "Hg6 mi
9:55 AM63 °FOvercast.8 mph73%30.01 "Hg6 mi
9:25 AM59 °FFog.9 mph77%30.01 "Hg4 mi
8:55 AM55 °FFog.8 mph82%30.01 "Hg4 mi
8:25 AM55 °FFog.7 mph82%30.01 "Hg4 mi
7:55 AM54 °FFog.9 mph88%30.01 "Hg4 mi
7:25 AM54 °FFog.7 mph88%30.01 "Hg3 mi
6:55 AM52 °FFog.6 mph94%30.01 "Hg3 mi
6:25 AM52 °FFog.10 mph94%30.01 "Hg3 mi
Weather by CustomWeather, © 2016

See weather overviewHow to use our weather pages